Tracking 28790 objects as of 19-Apr-2024
HD Live streaming from Space Station
objects crossing your sky now

TITAN 3C TRANSTAGE R/B

Track TITAN 3C TRANSTAGE R/B now!


NORAD ID: 3432
Int'l Code: 1968-081E
Perigee: 35,045.8 km
Apogee: 35,851.3 km
Inclination: 1.1 °
Period: 1,418.5 minutes
Semi major axis: 41819 km
RCS: 1.592 m2 (large)
Launch date: September 26, 1968
Source: United States (US)
Launch site: AIR FORCE EASTERN TEST RANGE (AFETR)

Note: This is a ROCKET BODY
Your satellite tracking list
Your tracking list is empty




NASA's NSSDC Master Catalog

Two Line Element Set (TLE):
1 03432U 68081E   24109.45719988 -.00000028  00000-0  00000-0 0  9993
2 03432   1.0791 347.2188 0096314 326.4488  29.6866  1.01515822113965
Source of the keplerian elements: AFSPC